Location: Newark
(52.3500°N, 175.9667°E)
Time: 06:55:57
(UTC+00:00)

S-56A Canister/Altair - Pass Details

Date: 27 April 2021
Orbit: 631 x 2501 km, 38.9° (Epoch: 12 May)

Event Time Altitude Azimuth Distance (km) Brightness Sun altitude
Rises 07:50:51 0° 205° (SSW) 5,743 12.0 -3.0°
Reaches altitude 10° 07:56:27 10° 190° (S) 4,424 11.2 -3.8°
Maximum altitude 08:03:23 18° 153° (SSE) 3,310 10.3 -4.7°
Drops below altitude 10° 08:09:01 10° 115° (ESE) 3,473 10.2 -5.4°
Enters shadow 08:11:02 - 104° (ESE) 3,798 10.5 -5.7°
Sets 08:12:38 0° 97° (E) 4,131 - -5.9°
